This demonstration page uses our WeatherBlox Daily Observations layout. Learn more.

39.08367, -84.50855

Hourly Observations for June 6, 2019

Temp ( °F °C ) Dew Point ( °F °C ) Humidity (%) Winds ( mph kmh ) Pressure ( in mb ) Visibility ( mi km ) Precip ( " mm )
12:53 am 00:53 Clear 67 19.4 65 18.3 93 93 ENE 5 7 29.8 1009 10 16.09344 0 0
1:53 am 01:53 Clear 66 18.9 65 18.3 96 96 Calm 29.8 1009 10 16.09344 0 0
2:53 am 02:53 Mostly Cloudy 66 18.9 65 18.3 96 96 S 5 7 29.83 1010 9 14.484096 0 0
3:53 am 03:53 Mostly Clear 66 18.9 65 18.3 96 96 Calm 29.8 1009 9 14.484096 0 0
4:53 am 04:53 Mostly Cloudy 65 18.3 64 17.8 97 97 SSW 3 6 29.8 1009 8 12.874752 0 0
5:20 am 05:20 Mostly Cloudy with Mist and Fog 65 18.3 64 17.8 97 97 VRB 3 6 29.83 1010 1.75 2.816352 0 0
5:34 am 05:34 Partly Cloudy with Mist and Fog 65 18.3 64 17.8 97 97 VRB 5 7 29.83 1010 0.75 1.207008 0 0
5:44 am 05:44 Mostly Clear with Mist and Fog 64 17.8 64 17.8 100 100 Calm 29.83 1010 1.75 2.816352 0 0
5:53 am 05:53 Mostly Clear with Mist and Fog 64 17.8 64 17.8 100 100 Calm 29.8 1009 1.25 2.01168 0 0
5:59 am 05:59 Clear with Mist and Fog 63 17.2 63 17.2 100 100 SSW 3 6 29.83 1010 0.75 1.207008 0 0
6:09 am 06:09 Mostly Cloudy with Fog 64 17.8 63 17.2 96 96 Calm 29.83 1010 0.5 0.804672 0 0
6:20 am 06:20 Mostly Cloudy with Fog 63 17.2 63 17.2 100 100 Calm 29.83 1010 0.25 0.402336 0 0
6:29 am 06:29 Mostly Cloudy with Fog 64 17.8 63 17.2 96 96 SE 3 6 29.83 1010 0.25 0.402336 0 0
6:35 am 06:35 Mostly Cloudy with Mist and Fog 64 17.8 63 17.2 96 96 Calm 29.83 1010 1 1.609344 0 0
6:39 am 06:39 Partly Cloudy with Mist and Fog 64 17.8 63 17.2 96 96 Calm 29.83 1010 2.5 4.02336 0 0
6:53 am 06:53 Partly Cloudy with Mist and Fog 64 17.8 63 17.2 96 96 Calm 29.83 1010 5 8.04672 0 0
7:53 am 07:53 Partly Cloudy with Mist and Fog 68 20 66 18.9 93 93 Calm 29.83 1010 6 9.656064 0 0
8:53 am 08:53 Partly Cloudy 72 22.2 67 19.4 84 84 Calm 29.83 1010 9 14.484096 0 0
9:53 am 09:53 Partly Cloudy 74 23.3 68 20 82 82 Calm 29.85 1011 10 16.09344 0 0
10:53 am 10:53 Partly Cloudy 76 24.4 68 20 77 77 Calm 29.85 1011 10 16.09344 0 0
11:53 am 11:53 Partly Cloudy 78 25.6 68 20 71 71 VRB 3 6 29.85 1011 10 16.09344 0 0
12:53 pm 12:53 Partly Cloudy 81 27.2 70 21.1 69 69 NNE 5 7 29.85 1011 10 16.09344 0 0
1:53 pm 13:53 Sunny 83 28.3 68 20 61 61 VRB 6 9 29.83 1010 10 16.09344 0 0
2:53 pm 14:53 Mostly Sunny 84 28.9 67 19.4 57 57 VRB 3 6 29.83 1010 10 16.09344 0 0
3:53 pm 15:53 Mostly Cloudy 84 28.9 66 18.9 55 55 VRB 7 11 29.8 1009 10 16.09344 0 0
4:53 pm 16:53 Partly Cloudy 83 28.3 67 19.4 59 59 VRB 6 9 29.8 1009 10 16.09344 0 0
5:53 pm 17:53 Sunny 82 27.8 70 21.1 67 67 Calm 29.8 1009 10 16.09344 0 0
6:53 pm 18:53 Sunny 81 27.2 71 21.7 72 72 Calm 29.8 1009 10 16.09344 0 0
7:53 pm 19:53 Sunny 79 26.1 72 22.2 79 79 Calm 29.8 1009 10 16.09344 0 0
8:53 pm 20:53 Mostly Sunny 75 23.9 71 21.7 88 88 Calm 29.8 1009 10 16.09344 0 0
9:53 pm 21:53 Mostly Clear 73 22.8 70 21.1 90 90 Calm 29.83 1010 10 16.09344 0 0
10:53 pm 22:53 Partly Cloudy 72 22.2 68 20 87 87 Calm 29.83 1010 10 16.09344 0 0
11:53 pm 23:53 Mostly Cloudy 72 22.2 67 19.4 84 84 ESE 3 6 29.83 1010 10 16.09344 0 0

Powered by AerisWeather